[[{"header":{"parameterUnit":"m.s-1","parameterCategory":2,"la1":30.2991,"la2":30.254,"lo1":-89.0895,"lo2":-89.0444,"dy":0.0017,"dx":0.0017,"nx":28,"ny":28,"refTime":"2023-10-22T09:00:00:Z","depth":"0","parameterNumber":2,"parameterNumberName":"U-component_of_CURRENTS"},"data":[0,0,0,0,0,0,0,0,0,0,0,0,0,0,0,0,0,0,0,0,0,0,0,0,0,0,0,0,0,0,0,0,0,0,0,0,0,0,0,0,0,0,0,0,0,0,0,0,0,0,0,0,0,0,0,0,0,0,-0.2317,-0.2317,0,-0.2366,-0.2367,-0.2367,-0.2347,-0.2346,-0.2345,-0.2344,-0.2307,-0.2307,-0.2307,0,0,0,0,0,0,0,0,0,0,0,0,0,-0.2202,-0.2204,-0.2317,-0.2317,-0.2318,-0.2366,-0.2367,-0.2367,-0.2347,-0.2346,-0.2344,-0.2343,-0.2307,-0.2307,-0.2307,0,0,0,0,0,0,0,0,0,0,0,0,0,-0.2251,-0.2205,-0.2317,-0.2315,-0.2315,-0.2366,-0.2367,-0.2368,-0.2347,-0.2346,-0.2344,-0.2343,-0.2307,-0.2307,-0.2307,-0.234,0,0,-0.2307,-0.2307,0,0,0,0,0,0,0,0,-0.2248,-0.2255,-0.2314,-0.2315,-0.2315,-0.235,-0.2313,-0.2354,-0.2348,-0.2334,-0.2344,-0.2342,-0.2315,-0.2315,-0.2327,-0.2338,-0.2337,-0.2307,-0.2307,-0.2307,-0.2307,0,0,0,0,0,0,0,-0.2245,-0.2253,-0.2335,-0.2315,-0.2316,-0.2311,-0.2316,-0.2321,-0.2331,-0.2335,-0.2334,-0.2342,-0.2314,-0.2327,-0.2326,-0.2336,-0.2307,-0.2307,-0.2307,-0.2307,-0.2337,-0.2338,0,0,0,0,0,0,-0.2243,-0.225,-0.2334,-0.2337,-0.2278,-0.2314,-0.232,-0.2339,-0.2332,-0.2331,-0.2343,-0.2341,-0.2328,-0.2326,-0.2324,-0.2334,-0.2307,-0.2307,-0.2307,-0.2337,-0.2337,-0.2338,0,0,0,0,0,0,-0.2241,-0.2251,-0.2332,-0.2294,-0.2304,-0.2318,-0.234,-0.2341,-0.2351,-0.234,-0.2336,-0.235,-0.2327,-0.2324,-0.2326,-0.2333,-0.2307,-0.2307,-0.2336,-0.2337,-0.2338,-0.2371,0,0,0,0,0,0,-0.2238,-0.225,-0.2264,-0.2295,-0.2306,-0.2358,-0.2342,-0.2343,-0.2359,-0.2356,-0.2345,-0.234,-0.2325,-0.2326,-0.2326,-0.2333,-0.2308,-0.2335,-0.2336,-0.2338,-0.2369,-0.2373,-0.2377,0,0,0,0,0,-0.2234,-0.2263,-0.2264,-0.2274,-0.2325,-0.2359,-0.2365,-0.2367,-0.236,-0.2369,-0.236,-0.234,-0.2334,-0.2327,-0.2327,-0.2333,-0.2334,-0.2336,-0.2337,-0.2367,-0.2372,-0.2377,0,0,0,0,0,0,-0.2222,-0.2265,-0.2267,-0.2308,-0.2327,-0.2356,-0.2369,-0.2374,-0.2378,-0.2372,-0.2355,-0.2351,-0.2357,-0.2345,-0.2337,-0.2347,-0.233,-0.2331,-0.2352,-0.2357,-0.2361,-0.2367,-0.2308,0,0,0,0,0,-0.2227,-0.2258,-0.229,-0.232,-0.2333,-0.2352,-0.2366,-0.237,-0.2381,-0.2381,-0.2373,-0.2366,-0.2368,-0.236,-0.2362,-0.2369,-0.2317,-0.2372,-0.2376,-0.238,-0.2385,-0.2358,-0.236,-0.2344,-0.2344,-0.2344,0,0,-0.2229,-0.2258,-0.2275,-0.2319,-0.2336,-0.2359,-0.2356,-0.2382,-0.2394,-0.2377,-0.2386,-0.2384,-0.2376,-0.2383,-0.2383,-0.2369,-0.2338,-0.2382,-0.2385,-0.2388,-0.236,-0.2361,-0.2362,-0.2345,-0.2345,-0.2345,0,0,-0.225,-0.2277,-0.2305,-0.2327,-0.2357,-0.2369,-0.2377,-0.2404,-0.2406,-0.2421,-0.2412,-0.2422,-0.2414,-0.2417,-0.2416,-0.2446,-0.2367,-0.2435,-0.2451,-0.2425,-0.2426,-0.2426,-0.2276,-0.2263,-0.2428,-0.2429,-0.2429,0,-0.2243,-0.229,-0.2316,-0.2346,-0.2358,-0.2373,-0.2392,-0.241,-0.243,-0.2427,-0.2421,-0.2429,-0.2435,-0.2443,-0.2458,-0.2456,-0.238,-0.2433,-0.2429,-0.2429,-0.2429,-0.2276,-0.2261,-0.243,-0.243,-0.243,-0.243,0,-0.2285,-0.2316,-0.2336,-0.2373,-0.2388,-0.2412,-0.2431,-0.244,-0.2441,-0.2448,-0.2455,-0.2469,-0.2464,-0.2476,-0.248,-0.2485,-0.2403,-0.2442,-0.2415,-0.2432,-0.2269,-0.2252,-0.2433,-0.2432,-0.2432,-0.2431,0,0,-0.2268,-0.2348,-0.2351,-0.2345,-0.2402,-0.2396,-0.2433,-0.2446,-0.242,-0.2463,-0.2433,-0.2496,-0.2493,-0.2494,-0.2498,-0.2494,-0.2419,-0.2468,-0.2465,-0.231,-0.2251,-0.1859,-0.1803,-0.2452,-0.2452,-0.2452,-0.2105,0,-0.2281,-0.2325,-0.2373,-0.2378,-0.2381,-0.2409,-0.2414,-0.2425,-0.2424,-0.2397,-0.2441,-0.2403,-0.2499,-0.2456,-0.2498,-0.2429,-0.2392,-0.2503,-0.2264,-0.2255,-0.1902,-0.1779,-0.1569,-0.1215,-0.2089,-0.2086,-0.2084,0,-0.2295,-0.2312,-0.2336,-0.2328,-0.2329,-0.2333,-0.2298,-0.2314,-0.2317,-0.2295,-0.2325,-0.2324,-0.233,-0.2395,-0.2334,-0.2389,-0.2335,-0.2292,-0.2278,-0.1899,-0.1835,-0.1357,-0.1152,-0.1172,-0.2059,-0.2061,-0.2062,0,-0.2223,-0.2269,-0.2271,-0.2281,-0.2293,-0.2281,-0.228,-0.228,-0.2179,-0.221,-0.207,-0.2188,-0.2058,-0.2147,-0.206,-0.2193,-0.1908,-0.2079,-0.167,-0.1637,-0.1402,-0.1347,-0.1186,-0.2033,-0.2034,-0.2035,-0.2036,0,-0.2203,-0.2179,-0.2225,-0.2215,-0.2089,-0.2195,-0.2053,-0.2065,-0.2009,-0.1813,-0.1988,-0.1773,-0.1982,-0.1841,-0.1944,-0.1644,-0.1802,-0.1602,-0.1517,-0.139,-0.1342,-0.1304,-0.1375,-0.2022,-0.2025,-0.2027,-0.2029,0,-0.2046,-0.2156,-0.2055,-0.2061,-0.204,-0.1919,-0.1772,-0.1659,-0.1672,-0.141,-0.1369,-0.1338,-0.1147,-0.1246,-0.1229,-0.1283,-0.1102,-0.1057,-0.0807,-0.0697,-0.0386,-0.0465,-0.0249,-0.0241,-0.0592,-0.058,-0.057,0,-0.1935,-0.1901,-0.1817,-0.17,-0.167,-0.1531,-0.1407,-0.1432,-0.1282,-0.1071,-0.0887,-0.0658,-0.0439,-0.0215,-0.026,-0.0229,-0.0493,-0.0022,-0.0288,-0.0239,-0.0273,-0.0509,-0.0546,0.0025,0.0039,0.005,0.006,0,-0.1567,-0.1557,-0.1456,-0.1279,-0.1133,-0.0939,-0.0805,-0.0651,-0.0645,-0.0448,-0.0162,-0.0003,0.0325,0.0493,0.0611,0.0573,0.0028,0.0229,0.0144,0.0173,0.0052,0.0063,-0.0275,0.0162,0.0152,0.0144,0.0139,0.0135,-0.1151,-0.098,-0.0901,-0.0712,-0.058,-0.0417,-0.0278,-0.0166,0.0057,0.0235,0.0363,0.0581,0.0878,0.1098,0.1132,0.1265,0.0918,0.1091,0.0988,0.0739,0.0758,0.0771,0.1378,0.1375,0.1373,0.137,0.1368,0,-0.0568,-0.0513,-0.0333,-0.017,-0.0032,-0.0086,0.0095,0.0164,0.0363,0.0546,0.0732,0.1066,0.1424,0.1561,0.1813,0.1852,0.1595,0.1801,0.1375,0.1287,0.1231,0.1269,0.2048,0.2048,0.2047,0.2047,0.2047,0.2047,-0.0232,0.002,0.0002,0.0292,0.0331,0.0476,0.053,0.0586,0.067,0.0864,0.0983,0.1068,0.1313,0.1824,0.2058,0.2081,0.1783,0.1938,0.1692,0.1529,0.1443,0.1362,0.1375,0.2164,0.2164,0.1683,0.168,0.1678]},{"header":{"parameterUnit":"m.s-1","parameterCategory":2,"la1":30.2991,"la2":30.254,"lo1":-89.0895,"lo2":-89.0444,"dy":0.0017,"dx":0.0017,"nx":28,"ny":28,"refTime":"2023-10-22T09:00:00:Z","depth":"0","parameterNumber":3,"parameterNumberName":"V-component_of_CURRENTS"},"data":[0,0,0,0,0,0,0,0,0,0,0,0,0,0,0,0,0,0,0,0,0,0,0,0,0,0,0,0,0,0,0,0,0,0,0,0,0,0,0,0,0,0,0,0,0,0,0,0,0,0,0,0,0,0,0,0,0,0,-0.1228,-0.1229,0,-0.1268,-0.1269,-0.1269,-0.1258,-0.1257,-0.1256,-0.1256,-0.1228,-0.1228,-0.1228,0,0,0,0,0,0,0,0,0,0,0,0,0,-0.1132,-0.1134,-0.1228,-0.1229,-0.1229,-0.1268,-0.1269,-0.1269,-0.1258,-0.1257,-0.1256,-0.1255,-0.1228,-0.1228,-0.1228,0,0,0,0,0,0,0,0,0,0,0,0,0,-0.1172,-0.1134,-0.1228,-0.1229,-0.123,-0.1268,-0.1269,-0.1269,-0.1258,-0.1257,-0.1256,-0.1255,-0.1228,-0.1228,-0.1228,-0.1248,0,0,-0.1227,-0.1227,0,0,0,0,0,0,0,0,-0.117,-0.1175,-0.1229,-0.1229,-0.123,-0.1258,-0.1225,-0.1259,-0.1258,-0.1246,-0.1256,-0.1254,-0.1233,-0.1233,-0.1242,-0.1247,-0.1246,-0.1227,-0.1227,-0.1227,-0.1227,0,0,0,0,0,0,0,-0.1167,-0.1174,-0.1243,-0.1229,-0.123,-0.1225,-0.1229,-0.1232,-0.1243,-0.1247,-0.1247,-0.1253,-0.1233,-0.1242,-0.1241,-0.1246,-0.1227,-0.1227,-0.1227,-0.1227,-0.1226,-0.1226,0,0,0,0,0,0,-0.1167,-0.1171,-0.1242,-0.1244,-0.1198,-0.1228,-0.1232,-0.1249,-0.1244,-0.1244,-0.1254,-0.1253,-0.1243,-0.1241,-0.124,-0.1232,-0.1227,-0.1227,-0.1227,-0.1226,-0.1226,-0.1226,0,0,0,0,0,0,-0.1165,-0.1173,-0.124,-0.1209,-0.1217,-0.1231,-0.1249,-0.1251,-0.1258,-0.1251,-0.1248,-0.126,-0.1242,-0.124,-0.1237,-0.1232,-0.1227,-0.1227,-0.1226,-0.1226,-0.1226,-0.1236,0,0,0,0,0,0,-0.1162,-0.1172,-0.1185,-0.1209,-0.1219,-0.126,-0.125,-0.1252,-0.1264,-0.1263,-0.1255,-0.1252,-0.1241,-0.1238,-0.1237,-0.1231,-0.1227,-0.1226,-0.1226,-0.1226,-0.1236,-0.1237,-0.1237,0,0,0,0,0,-0.1159,-0.1183,-0.1185,-0.1194,-0.1236,-0.126,-0.1264,-0.1269,-0.1266,-0.1271,-0.1263,-0.1252,-0.1237,-0.1238,-0.1237,-0.1231,-0.1226,-0.1226,-0.1226,-0.1236,-0.1236,-0.1237,0,0,0,0,0,0,-0.1145,-0.1185,-0.1188,-0.1222,-0.1237,-0.1258,-0.127,-0.1273,-0.1275,-0.1271,-0.1259,-0.1256,-0.1249,-0.1244,-0.1245,-0.1231,-0.1227,-0.1227,-0.1234,-0.1235,-0.1236,-0.1204,-0.1227,0,0,0,0,0,-0.115,-0.118,-0.1205,-0.123,-0.124,-0.1255,-0.1266,-0.127,-0.1276,-0.1277,-0.127,-0.1261,-0.1252,-0.1246,-0.124,-0.124,-0.1201,-0.1233,-0.1234,-0.1235,-0.1208,-0.1164,-0.1158,-0.1227,-0.1227,-0.1227,0,0,-0.115,-0.1177,-0.1193,-0.123,-0.1242,-0.1248,-0.1259,-0.1278,-0.1273,-0.1273,-0.1265,-0.1266,-0.1254,-0.1247,-0.1243,-0.124,-0.1194,-0.1235,-0.1235,-0.1208,-0.1163,-0.1156,-0.115,-0.1227,-0.1227,-0.1227,0,0,-0.1155,-0.1191,-0.1206,-0.1221,-0.1245,-0.1253,-0.1258,-0.1278,-0.1276,-0.128,-0.1271,-0.1267,-0.1264,-0.1247,-0.1238,-0.1241,-0.1202,-0.1245,-0.122,-0.1178,-0.1171,-0.1165,-0.1101,-0.1089,-0.1243,-0.1243,-0.1243,0,-0.1147,-0.1167,-0.1212,-0.1222,-0.1217,-0.1252,-0.1239,-0.1259,-0.1271,-0.1251,-0.1274,-0.125,-0.1257,-0.1221,-0.1227,-0.124,-0.1201,-0.122,-0.1177,-0.117,-0.1163,-0.11,-0.1086,-0.1243,-0.1243,-0.1243,-0.1243,0,-0.1156,-0.1163,-0.1174,-0.1191,-0.1198,-0.1201,-0.122,-0.1223,-0.123,-0.1231,-0.121,-0.1229,-0.1196,-0.1218,-0.1228,-0.1183,-0.1166,-0.1186,-0.1172,-0.1157,-0.1091,-0.1076,-0.1244,-0.1244,-0.1243,-0.1243,0,0,-0.114,-0.1168,-0.1167,-0.1128,-0.1172,-0.1152,-0.1168,-0.115,-0.1101,-0.1157,-0.1089,-0.1135,-0.1137,-0.1127,-0.1144,-0.1131,-0.1073,-0.114,-0.1138,-0.107,-0.0954,-0.0901,-0.088,-0.1087,-0.1084,-0.1083,-0.0925,0,-0.1112,-0.1087,-0.1127,-0.1071,-0.1035,-0.1068,-0.1045,-0.1041,-0.1047,-0.1001,-0.1047,-0.0997,-0.1105,-0.1064,-0.1085,-0.1063,-0.1035,-0.1111,-0.0983,-0.0978,-0.0928,-0.0862,-0.0773,-0.0621,-0.091,-0.0908,-0.0906,0,-0.1093,-0.1059,-0.1007,-0.0929,-0.0916,-0.0903,-0.0825,-0.0813,-0.0804,-0.0795,-0.0812,-0.0833,-0.0835,-0.0914,-0.0902,-0.0944,-0.094,-0.0945,-0.0939,-0.0869,-0.0898,-0.0684,-0.0583,-0.0642,-0.0884,-0.0885,-0.0887,0,-0.0992,-0.0961,-0.0893,-0.0882,-0.0831,-0.0794,-0.0764,-0.0744,-0.0671,-0.0655,-0.0583,-0.0641,-0.0595,-0.0656,-0.0722,-0.0784,-0.0683,-0.0762,-0.0706,-0.0702,-0.0586,-0.0575,-0.0516,-0.0712,-0.0712,-0.0713,-0.0713,0,-0.093,-0.0855,-0.0833,-0.0783,-0.0649,-0.067,-0.0541,-0.0522,-0.046,-0.0339,-0.0455,-0.0359,-0.0524,-0.0515,-0.0621,-0.0607,-0.06,-0.066,-0.0646,-0.0588,-0.058,-0.0596,-0.0681,-0.0707,-0.0708,-0.0709,-0.071,0,-0.0808,-0.0827,-0.0701,-0.0627,-0.06,-0.0492,-0.0382,-0.0276,-0.0251,-0.0097,-0.0068,-0.0092,-0.0097,-0.0248,-0.0294,-0.0407,-0.0466,-0.0427,-0.0343,-0.0324,-0.0363,-0.0453,-0.0455,-0.0501,-0.0332,-0.033,-0.0328,0,-0.0727,-0.0665,-0.0553,-0.0474,-0.0439,-0.0313,-0.0215,-0.0168,-0.0059,0.0078,0.0185,0.0216,0.0259,0.0184,-0.0019,-0.0145,-0.0308,-0.0124,-0.0244,-0.0307,-0.0398,-0.0564,-0.0616,-0.0089,-0.0086,-0.0082,-0.008,0,-0.0519,-0.0503,-0.0408,-0.0261,-0.0158,-0.0009,0.0117,0.0224,0.0299,0.0413,0.0575,0.0626,0.055,0.0466,0.0277,0.015,-0.0189,-0.0062,-0.0138,-0.0195,-0.0354,-0.0409,-0.0253,-0.0052,-0.0055,-0.0057,-0.0058,-0.0059,-0.0337,-0.0243,-0.0152,-0.0004,0.0114,0.0281,0.0382,0.0502,0.0675,0.0816,0.0868,0.0954,0.089,0.0629,0.0431,0.0169,0.0015,0.0096,0.0001,-0.0155,-0.0228,-0.0003,0.0203,0.0202,0.02,0.0199,0.0199,0,-0.0103,-0.0038,0.0108,0.0263,0.0411,0.0426,0.0605,0.067,0.0824,0.0978,0.1094,0.1246,0.1098,0.0847,0.0543,0.0306,0.0075,0.016,-0.0043,-0.0096,0.0148,0.013,0.0345,0.0345,0.0345,0.0345,0.0345,0.0345,0.0016,0.0177,0.0221,0.0496,0.0589,0.0735,0.0807,0.0886,0.0979,0.118,0.1317,0.1442,0.1429,0.0876,0.0444,0.0306,0.0013,-0.005,-0.0213,-0.0022,-0.0037,-0.0051,-0.0085,0.0081,0.0081,-0.0431,-0.0435,-0.0439]}],[{"header":{"parameterUnit":"m.s-1","parameterCategory":2,"la1":30.2991,"la2":30.254,"lo1":-89.0895,"lo2":-89.0444,"dy":0.0017,"dx":0.0017,"nx":28,"ny":28,"refTime":"2023-10-22T09:00:00:Z","depth":"2","parameterNumber":2,"parameterNumberName":"U-component_of_CURRENTS"},"data":[0,0,0,0,0,0,0,0,0,0,0,0,0,0,0,0,0,0,0,0,0,0,0,0,0,0,0,0,0,0,0,0,0,0,0,0,0,0,0,0,0,0,0,0,0,0,0,0,0,0,0,0,0,0,0,0,0,0,-0.0563,-0.0564,0,-0.0609,-0.0609,-0.0609,-0.0624,-0.0624,-0.0625,-0.0625,-0.056,-0.0558,-0.0556,0,0,0,0,0,0,0,0,0,0,0,0,0,-0.0513,-0.0514,-0.0563,-0.0564,-0.0565,-0.0609,-0.0609,-0.0609,-0.0624,-0.0624,-0.0625,-0.0625,-0.056,-0.0558,-0.0556,0,0,0,0,0,0,0,0,0,0,0,0,0,-0.054,-0.0514,-0.0563,-0.0581,-0.0583,-0.0609,-0.0609,-0.0609,-0.0624,-0.0624,-0.0625,-0.0625,-0.0561,-0.0558,-0.0556,-0.0532,0,0,-0.0547,-0.0546,0,0,0,0,0,0,0,0,-0.0539,-0.0542,-0.0577,-0.058,-0.0583,-0.0615,-0.0568,-0.0579,-0.0624,-0.0604,-0.0625,-0.0625,-0.057,-0.0567,-0.057,-0.0529,-0.0526,-0.0547,-0.0545,-0.0544,-0.0543,0,0,0,0,0,0,0,-0.0537,-0.054,-0.0577,-0.0578,-0.0582,-0.0595,-0.0599,-0.057,-0.058,-0.0606,-0.0608,-0.062,-0.057,-0.0573,-0.0569,-0.0525,-0.0547,-0.0544,-0.0542,-0.0541,-0.0457,-0.0457,0,0,0,0,0,0,-0.0538,-0.0538,-0.0576,-0.0579,-0.0566,-0.0596,-0.06,-0.0601,-0.0583,-0.0582,-0.062,-0.0621,-0.0578,-0.0572,-0.0566,-0.0538,-0.0544,-0.0541,-0.0539,-0.0458,-0.0457,-0.0457,0,0,0,0,0,0,-0.0537,-0.0541,-0.0574,-0.0564,-0.0569,-0.0597,-0.0598,-0.0602,-0.0606,-0.0595,-0.0592,-0.0621,-0.0578,-0.057,-0.0541,-0.0535,-0.054,-0.0537,-0.0459,-0.0458,-0.0457,-0.048,0,0,0,0,0,0,-0.0535,-0.0539,-0.0537,-0.0563,-0.057,-0.0589,-0.0598,-0.0602,-0.0615,-0.0616,-0.0595,-0.0589,-0.0578,-0.0545,-0.0538,-0.0531,-0.0535,-0.0459,-0.0458,-0.0457,-0.048,-0.048,-0.048,0,0,0,0,0,-0.0533,-0.0529,-0.0536,-0.0541,-0.0566,-0.0589,-0.0593,-0.0612,-0.0615,-0.0616,-0.06,-0.059,-0.0534,-0.0543,-0.0534,-0.0527,-0.046,-0.0458,-0.0457,-0.048,-0.048,-0.048,0,0,0,0,0,0,-0.0509,-0.0531,-0.054,-0.0543,-0.0566,-0.0593,-0.0601,-0.061,-0.0601,-0.0597,-0.0581,-0.0574,-0.0547,-0.053,-0.054,-0.0499,-0.0496,-0.0493,-0.0515,-0.0515,-0.0516,-0.052,-0.0532,0,0,0,0,0,-0.0503,-0.0502,-0.0532,-0.0536,-0.0548,-0.0572,-0.0583,-0.0595,-0.0597,-0.0595,-0.0578,-0.0556,-0.0535,-0.0521,-0.0498,-0.0472,-0.0441,-0.0461,-0.0462,-0.0462,-0.0459,-0.0441,-0.044,-0.0453,-0.0453,-0.0453,0,0,-0.0496,-0.0509,-0.0509,-0.0531,-0.055,-0.056,-0.0578,-0.0595,-0.0595,-0.0585,-0.0566,-0.0552,-0.0528,-0.0505,-0.0491,-0.049,-0.043,-0.0461,-0.0461,-0.0458,-0.044,-0.0439,-0.0438,-0.0452,-0.0452,-0.0453,0,0,-0.0484,-0.0494,-0.0492,-0.0508,-0.0537,-0.0552,-0.0556,-0.0577,-0.0579,-0.0562,-0.0558,-0.0547,-0.0503,-0.05,-0.0489,-0.0473,-0.0432,-0.0458,-0.0462,-0.0445,-0.0444,-0.0443,-0.0354,-0.0345,-0.0459,-0.0459,-0.0459,0,-0.0478,-0.0478,-0.0496,-0.0502,-0.0519,-0.0545,-0.0554,-0.0556,-0.0561,-0.0562,-0.0553,-0.0517,-0.0503,-0.0489,-0.0488,-0.0475,-0.0431,-0.0467,-0.0447,-0.0446,-0.0444,-0.0353,-0.0343,-0.046,-0.046,-0.046,-0.046,0,-0.0465,-0.0469,-0.0474,-0.0486,-0.0501,-0.0517,-0.0533,-0.0535,-0.0537,-0.0541,-0.0525,-0.051,-0.0492,-0.0488,-0.0481,-0.0467,-0.0423,-0.0451,-0.0451,-0.0445,-0.0348,-0.0337,-0.0461,-0.0461,-0.0461,-0.0461,0,0,-0.0461,-0.0462,-0.0467,-0.047,-0.0499,-0.051,-0.0513,-0.053,-0.0522,-0.052,-0.0502,-0.0497,-0.0497,-0.0484,-0.0479,-0.0469,-0.0414,-0.0454,-0.0453,-0.037,-0.0312,-0.028,-0.0264,-0.0441,-0.0441,-0.044,-0.0231,0,-0.0457,-0.0447,-0.0459,-0.0464,-0.047,-0.0497,-0.0495,-0.0508,-0.0506,-0.0485,-0.0491,-0.0464,-0.0492,-0.0474,-0.0475,-0.0427,-0.0393,-0.0464,-0.0325,-0.0319,-0.0299,-0.0255,-0.032,-0.0141,-0.022,-0.0218,-0.0217,0,-0.0455,-0.0449,-0.0444,-0.0453,-0.046,-0.0461,-0.0474,-0.0474,-0.0465,-0.0459,-0.0456,-0.0441,-0.0419,-0.0442,-0.0371,-0.041,-0.036,-0.0327,-0.0319,-0.0278,-0.0269,-0.0169,-0.0118,-0.0198,-0.0199,-0.0201,-0.0202,0,-0.0448,-0.045,-0.0441,-0.0446,-0.0452,-0.0457,-0.0462,-0.0466,-0.0466,-0.0434,-0.0415,-0.0394,-0.0357,-0.0327,-0.0273,-0.0309,-0.0169,-0.021,-0.0123,-0.0117,-0.014,-0.0138,-0.0155,-0.0155,-0.0155,-0.0156,-0.0157,0,-0.045,-0.045,-0.0431,-0.0428,-0.0425,-0.0436,-0.0432,-0.0433,-0.042,-0.0411,-0.0397,-0.037,-0.0332,-0.0261,-0.0226,-0.0122,-0.013,-0.0097,-0.0071,-0.0143,-0.0144,-0.0188,-0.0195,-0.0148,-0.015,-0.0151,-0.0153,0,-0.0456,-0.0441,-0.0434,-0.0423,-0.0421,-0.0418,-0.0424,-0.0418,-0.0403,-0.038,-0.0366,-0.032,-0.0221,-0.0157,-0.0058,-0.0041,0.0042,0.0077,0.0032,0.0047,0.0087,0.0077,0.0219,0.0222,0.0224,0.0226,0.0228,0,-0.0462,-0.0452,-0.0428,-0.042,-0.0417,-0.0412,-0.0414,-0.0412,-0.0415,-0.0362,-0.0351,-0.0236,-0.0179,0.0009,0.0088,0.0216,0.0152,0.0211,0.0101,0.011,0.0121,0.0107,0.0094,0.0099,0.01,0.01,0.01,0,-0.0478,-0.0461,-0.0444,-0.0419,-0.0413,-0.0412,-0.0413,-0.0414,-0.0407,-0.0377,-0.0314,-0.0249,-0.0063,0.005,0.0214,0.0241,0.0181,0.0224,0.0244,-0.0004,0.0007,0.0014,0.0003,0.0103,0.0103,0.0103,0.0102,0.0102,-0.0492,-0.0477,-0.0441,-0.0422,-0.0412,-0.0408,-0.0399,-0.0399,-0.0384,-0.0319,-0.0281,-0.0159,-0.0078,0.017,0.0221,0.0278,0.0291,0.0235,0.023,0.0225,0.0154,0.0166,0.0285,0.0286,0.0286,0.0287,0.0288,0,-0.0502,-0.0471,-0.045,-0.0418,-0.0401,-0.0397,-0.0395,-0.0378,-0.0346,-0.0254,-0.0176,-0.0086,0.0015,0.0115,0.0231,0.0276,0.0212,0.0227,0.0124,0.0122,0.012,0.0038,0.0142,0.0142,0.0142,0.0142,0,0,-0.0501,-0.0469,-0.0445,-0.0409,-0.0387,-0.0356,-0.0344,-0.031,-0.0243,-0.0142,-0.0047,0.0029,0.01,0.0128,0.0143,0.0176,0.0135,0.0147,0.0258,0.0133,0.013,0.0116,-0.0011,0,0,0,0,0]},{"header":{"parameterUnit":"m.s-1","parameterCategory":2,"la1":30.2991,"la2":30.254,"lo1":-89.0895,"lo2":-89.0444,"dy":0.0017,"dx":0.0017,"nx":28,"ny":28,"refTime":"2023-10-22T09:00:00:Z","depth":"2","parameterNumber":3,"parameterNumberName":"V-component_of_CURRENTS"},"data":[0,0,0,0,0,0,0,0,0,0,0,0,0,0,0,0,0,0,0,0,0,0,0,0,0,0,0,0,0,0,0,0,0,0,0,0,0,0,0,0,0,0,0,0,0,0,0,0,0,0,0,0,0,0,0,0,0,0,-0.0193,-0.0192,0,-0.0031,-0.0029,-0.0027,0.0096,0.0097,0.0098,0.0099,0.0288,0.0292,0.0296,0,0,0,0,0,0,0,0,0,0,0,0,0,-0.0312,-0.0311,-0.0193,-0.0192,-0.019,-0.0031,-0.0029,-0.0026,0.0096,0.0097,0.0098,0.0099,0.0286,0.0291,0.0296,0,0,0,0,0,0,0,0,0,0,0,0,0,-0.0214,-0.0311,-0.0194,-0.0112,-0.0103,-0.0032,-0.0029,-0.0026,0.0096,0.0097,0.0098,0.01,0.0285,0.0291,0.0297,0.0309,0,0,0.0316,0.0319,0,0,0,0,0,0,0,0,-0.022,-0.021,-0.0125,-0.0117,-0.0107,0.0012,-0.0001,0.0087,0.0095,0.0023,0.0099,0.01,0.0195,0.0209,0.024,0.0318,0.0326,0.0317,0.0321,0.0323,0.0325,0,0,0,0,0,0,0,-0.0227,-0.0216,-0.0126,-0.0124,-0.0113,-0.0054,-0.0039,0.0016,0.0102,0.0029,0.0038,0.0052,0.0201,0.0233,0.0245,0.0329,0.0317,0.0322,0.0326,0.0329,0.0482,0.0483,0,0,0,0,0,0,-0.0258,-0.0223,-0.0132,-0.0122,-0.0164,-0.0053,-0.0036,-0.0026,0.0101,0.0121,0.005,0.0057,0.0222,0.0238,0.0252,0.0308,0.0323,0.0329,0.0333,0.0482,0.0482,0.0483,0,0,0,0,0,0,-0.0262,-0.0252,-0.0138,-0.017,-0.0152,-0.0054,-0.0042,-0.0023,0.0027,0.0116,0.0138,0.0083,0.0224,0.0243,0.0313,0.0315,0.0332,0.0338,0.0482,0.0482,0.0482,0.0398,0,0,0,0,0,0,-0.0266,-0.0254,-0.0251,-0.0173,-0.0151,-0.0092,-0.0043,-0.0021,0.0031,0.0041,0.015,0.0169,0.0226,0.0303,0.0319,0.0324,0.0343,0.0481,0.0482,0.0482,0.04,0.0395,0.0391,0,0,0,0,0,-0.0271,-0.0267,-0.0252,-0.0241,-0.0153,-0.0092,-0.0075,0.0002,0.0031,0.0052,0.0124,0.0166,0.0318,0.0308,0.0327,0.0334,0.0481,0.0482,0.0482,0.0402,0.0396,0.0391,0,0,0,0,0,0,-0.0305,-0.0252,-0.0234,-0.0212,-0.0159,-0.0072,-0.0043,0.0,0.0075,0.009,0.0172,0.0195,0.0258,0.0306,0.0293,0.0381,0.0406,0.041,0.0339,0.0334,0.0329,0.0296,0.0348,0,0,0,0,0,-0.032,-0.0308,-0.0246,-0.0228,-0.0205,-0.0128,-0.0092,-0.0043,0.0028,0.0064,0.0136,0.0211,0.0272,0.031,0.0375,0.0419,0.043,0.0437,0.0432,0.0428,0.0414,0.0427,0.0422,0.0485,0.0485,0.0485,0,0,-0.0329,-0.0299,-0.0291,-0.0236,-0.0187,-0.0155,-0.0101,-0.0047,-0.0018,0.007,0.0135,0.02,0.0282,0.0336,0.0368,0.0379,0.0413,0.0428,0.0424,0.0413,0.0427,0.0421,0.0415,0.0485,0.0485,0.0485,0,0,-0.0341,-0.0316,-0.0308,-0.0271,-0.021,-0.0166,-0.0155,-0.007,-0.0029,0.0034,0.0101,0.016,0.0265,0.0313,0.0352,0.0359,0.0389,0.0387,0.0337,0.035,0.0344,0.0339,0.0323,0.0318,0.0383,0.0382,0.0382,0,-0.0351,-0.0337,-0.0294,-0.0274,-0.025,-0.0178,-0.0161,-0.0111,-0.0014,0.0004,0.0047,0.0175,0.0249,0.0293,0.0305,0.0346,0.0349,0.0348,0.034,0.0335,0.0332,0.0318,0.0312,0.0379,0.0379,0.0379,0.038,0,-0.0355,-0.0341,-0.0331,-0.0293,-0.0263,-0.0233,-0.0175,-0.0138,-0.0085,-0.0041,0.002,0.0113,0.0186,0.0219,0.0272,0.0283,0.0291,0.033,0.0343,0.0319,0.0307,0.0303,0.0373,0.0374,0.0375,0.0376,0,0,-0.0379,-0.0344,-0.0339,-0.0335,-0.0273,-0.0249,-0.0219,-0.0179,-0.0161,-0.0082,-0.0063,0.0039,0.0083,0.0129,0.0196,0.021,0.0192,0.0254,0.0257,0.0219,0.0193,0.0164,0.0157,0.0227,0.0226,0.0226,0.0186,0,-0.0391,-0.0385,-0.0357,-0.0346,-0.0337,-0.0285,-0.0265,-0.0223,-0.0172,-0.0134,-0.0069,-0.0009,0.005,0.0093,0.0111,0.0187,0.0181,0.0197,0.024,0.024,0.0201,0.0152,0.0164,0.0128,0.0183,0.0182,0.0182,0,-0.0402,-0.0398,-0.0403,-0.0387,-0.0378,-0.036,-0.0332,-0.03,-0.0246,-0.0207,-0.0161,-0.0095,-0.0051,0.001,0.0067,0.0074,0.0118,0.016,0.016,0.0159,0.0204,0.0168,0.0119,0.0175,0.0176,0.0176,0.0177,0,-0.0452,-0.043,-0.0446,-0.0436,-0.0402,-0.0399,-0.0374,-0.0326,-0.0306,-0.0252,-0.0228,-0.0173,-0.0122,-0.0074,0.0021,0.0046,0.0067,0.0119,0.0116,0.0114,0.0145,0.0146,0.013,0.013,0.013,0.013,0.013,0,-0.0485,-0.0491,-0.047,-0.0476,-0.0484,-0.0443,-0.0441,-0.0404,-0.0358,-0.0329,-0.0267,-0.0226,-0.0137,-0.0097,-0.0026,0.0016,0.0027,0.0081,0.0097,0.0115,0.0114,0.0185,0.0192,0.0129,0.0129,0.0129,0.013,0,-0.0534,-0.0524,-0.0532,-0.0512,-0.0509,-0.0509,-0.048,-0.0468,-0.0422,-0.038,-0.0362,-0.028,-0.0219,-0.0162,-0.0077,-0.0042,0.0007,0.0019,0.0013,0.0029,0.0051,0.0055,-0.0001,-0.0002,-0.0004,-0.0005,-0.0006,0,-0.0562,-0.0576,-0.0567,-0.0569,-0.0559,-0.0555,-0.0547,-0.0503,-0.0475,-0.0395,-0.0369,-0.0314,-0.024,-0.018,-0.0114,-0.0063,-0.003,-0.0044,0.0009,0.0013,0.0036,0.0041,0.0046,0.0014,0.0013,0.0013,0.0012,0,-0.0604,-0.0599,-0.0597,-0.0606,-0.0602,-0.06,-0.0574,-0.0565,-0.049,-0.0444,-0.0348,-0.0289,-0.0226,-0.0149,-0.0124,-0.0085,-0.0055,-0.0055,-0.0044,0.0041,0.0023,0.0047,0.0052,0.0008,0.0008,0.0008,0.0009,0.0009,-0.0621,-0.0621,-0.0615,-0.0619,-0.0622,-0.0606,-0.0585,-0.0539,-0.0483,-0.037,-0.0343,-0.0244,-0.0221,-0.0152,-0.0099,-0.0065,-0.0075,-0.0055,-0.0052,-0.0048,-0.0043,-0.0062,-0.0095,-0.0095,-0.0095,-0.0095,-0.0095,0,-0.0618,-0.0617,-0.0628,-0.0614,-0.0615,-0.061,-0.0569,-0.0527,-0.0431,-0.0349,-0.0262,-0.0218,-0.0159,-0.0116,-0.0051,-0.0036,-0.0002,-0.0034,0.0017,0.0019,0.0021,0.0033,-0.0,0.0001,0.0001,0.0002,0,0,-0.0609,-0.0602,-0.06,-0.0595,-0.0591,-0.0552,-0.0514,-0.0446,-0.0379,-0.027,-0.0199,-0.0198,-0.016,-0.0105,-0.0078,-0.0015,0.0005,-0.0011,-0.0098,-0.004,-0.0037,-0.0014,0.0002,0,0,0,0,0]}],[{"header":{"parameterUnit":"m.s-1","parameterCategory":2,"la1":30.2991,"la2":30.254,"lo1":-89.0895,"lo2":-89.0444,"dy":0.0017,"dx":0.0017,"nx":28,"ny":28,"refTime":"2023-10-22T09:00:00:Z","depth":"4","parameterNumber":2,"parameterNumberName":"U-component_of_CURRENTS"},"data":[0,0,0,0,0,0,0,0,0,0,0,0,0,0,0,0,0,0,0,0,0,0,0,0,0,0,0,0,0,0,0,0,0,0,0,0,0,0,0,0,0,0,0,0,0,0,0,0,0,0,0,0,0,0,0,0,0,0,-0.0392,-0.0392,0,-0.0402,-0.0402,-0.0402,-0.0406,-0.0406,-0.0406,-0.0406,-0.0447,-0.0448,-0.0449,0,0,0,0,0,0,0,0,0,0,0,0,0,-0.0368,-0.0368,-0.0392,-0.0392,-0.0392,-0.0402,-0.0402,-0.0402,-0.0406,-0.0406,-0.0406,-0.0406,-0.0446,-0.0448,-0.0449,0,0,0,0,0,0,0,0,0,0,0,0,0,-0.0378,-0.0369,-0.0392,-0.0395,-0.0395,-0.0402,-0.0402,-0.0402,-0.0406,-0.0406,-0.0406,-0.0406,-0.0446,-0.0448,-0.0449,-0.046,0,0,-0.0454,-0.0455,0,0,0,0,0,0,0,0,-0.0378,-0.0379,-0.0394,-0.0395,-0.0395,-0.0402,-0.0408,-0.0423,-0.0406,-0.0402,-0.0406,-0.0406,-0.0435,-0.0437,-0.0439,-0.0462,-0.0464,-0.0455,-0.0456,-0.0456,-0.0457,0,0,0,0,0,0,0,-0.0377,-0.0378,-0.0396,-0.0394,-0.0395,-0.0393,-0.0395,-0.0411,-0.0419,-0.0402,-0.0402,-0.0404,-0.0435,-0.0437,-0.044,-0.0465,-0.0454,-0.0456,-0.0457,-0.0458,-0.0491,-0.0491,0,0,0,0,0,0,-0.0376,-0.0378,-0.0395,-0.0396,-0.0386,-0.0394,-0.0395,-0.04,-0.0418,-0.0421,-0.0404,-0.0404,-0.0434,-0.0438,-0.0442,-0.046,-0.0456,-0.0458,-0.0459,-0.0491,-0.0491,-0.049,0,0,0,0,0,0,-0.0376,-0.0378,-0.0395,-0.0387,-0.0389,-0.0394,-0.0399,-0.04,-0.0404,-0.0419,-0.0422,-0.0407,-0.0435,-0.0439,-0.0457,-0.0462,-0.0459,-0.046,-0.0491,-0.0491,-0.0491,-0.0495,0,0,0,0,0,0,-0.0375,-0.0378,-0.0383,-0.0387,-0.0389,-0.04,-0.04,-0.0401,-0.0405,-0.0405,-0.0423,-0.0426,-0.0435,-0.0454,-0.0459,-0.0464,-0.0461,-0.0491,-0.0491,-0.0491,-0.0495,-0.0495,-0.0495,0,0,0,0,0,-0.0374,-0.0381,-0.0383,-0.0385,-0.0396,-0.04,-0.0401,-0.0404,-0.0405,-0.0408,-0.0419,-0.0426,-0.0455,-0.0456,-0.0461,-0.0467,-0.0491,-0.0491,-0.0491,-0.0495,-0.0495,-0.0495,0,0,0,0,0,0,-0.0373,-0.0382,-0.0385,-0.0394,-0.0397,-0.0401,-0.0405,-0.0406,-0.0416,-0.0419,-0.043,-0.0435,-0.0449,-0.0456,-0.0457,-0.0473,-0.0472,-0.0473,-0.0474,-0.0474,-0.0474,-0.0471,-0.0463,0,0,0,0,0,-0.0375,-0.0384,-0.0389,-0.0397,-0.0399,-0.0402,-0.0405,-0.0407,-0.0414,-0.0419,-0.0429,-0.044,-0.0451,-0.0462,-0.047,-0.0487,-0.0489,-0.0491,-0.0491,-0.0491,-0.049,-0.0503,-0.0505,-0.0489,-0.0489,-0.0489,0,0,-0.0377,-0.0383,-0.0389,-0.0397,-0.0401,-0.0404,-0.0404,-0.0409,-0.0413,-0.0423,-0.0434,-0.0441,-0.0453,-0.0467,-0.0474,-0.0476,-0.0493,-0.049,-0.0491,-0.049,-0.0503,-0.0505,-0.0506,-0.0489,-0.0489,-0.0489,0,0,-0.0381,-0.0391,-0.0396,-0.04,-0.0406,-0.0408,-0.041,-0.0414,-0.0418,-0.0429,-0.0434,-0.0445,-0.0462,-0.0472,-0.0479,-0.0485,-0.0489,-0.0485,-0.049,-0.0502,-0.0504,-0.0506,-0.0499,-0.0499,-0.0489,-0.0489,-0.0489,0,-0.0383,-0.039,-0.0398,-0.0401,-0.0405,-0.041,-0.0413,-0.0418,-0.0427,-0.0433,-0.0432,-0.0453,-0.0464,-0.0483,-0.0481,-0.0486,-0.0486,-0.0491,-0.0503,-0.0505,-0.0506,-0.0499,-0.05,-0.0489,-0.0489,-0.0489,-0.0489,0,-0.0385,-0.0393,-0.0397,-0.0405,-0.041,-0.0414,-0.0421,-0.0428,-0.0432,-0.0436,-0.045,-0.0463,-0.0476,-0.0479,-0.0483,-0.0498,-0.0491,-0.0499,-0.0505,-0.0508,-0.05,-0.0501,-0.049,-0.049,-0.0489,-0.0489,0,0,-0.0384,-0.0396,-0.0398,-0.0403,-0.0412,-0.0416,-0.0427,-0.0436,-0.0443,-0.0452,-0.046,-0.0477,-0.0481,-0.0488,-0.0497,-0.0508,-0.0514,-0.0507,-0.0508,-0.0503,-0.0527,-0.044,-0.0432,-0.0527,-0.0527,-0.0527,-0.0514,0,-0.0383,-0.039,-0.0397,-0.0407,-0.0411,-0.0421,-0.0431,-0.0441,-0.0448,-0.0457,-0.0472,-0.0482,-0.0486,-0.0493,-0.0505,-0.0512,-0.0518,-0.0515,-0.0523,-0.0522,-0.0447,-0.0431,-0.0529,-0.0514,-0.0515,-0.0515,-0.0515,0,-0.038,-0.0387,-0.0395,-0.0409,-0.0412,-0.042,-0.0436,-0.0445,-0.046,-0.0465,-0.0479,-0.0486,-0.0503,-0.0504,-0.0522,-0.0521,-0.0522,-0.0525,-0.0525,-0.0443,-0.0436,-0.0513,-0.0516,-0.0516,-0.0516,-0.0516,-0.0516,0,-0.0373,-0.0385,-0.0394,-0.0398,-0.0415,-0.0424,-0.0433,-0.0448,-0.0456,-0.0471,-0.0472,-0.0494,-0.0498,-0.0516,-0.0515,-0.0523,-0.0523,-0.0539,-0.0461,-0.0455,-0.0539,-0.0537,-0.0549,-0.0549,-0.0549,-0.0549,-0.0549,0,-0.0367,-0.0376,-0.0393,-0.0399,-0.0412,-0.0422,-0.0436,-0.0447,-0.0459,-0.046,-0.0477,-0.0472,-0.0501,-0.0502,-0.0512,-0.0474,-0.0523,-0.045,-0.0443,-0.0538,-0.0537,-0.0538,-0.0537,-0.0549,-0.0549,-0.0549,-0.0549,0,-0.0362,-0.0371,-0.0385,-0.0405,-0.041,-0.0422,-0.0439,-0.0445,-0.0454,-0.0455,-0.0458,-0.0459,-0.0438,-0.0451,-0.0463,-0.045,-0.044,-0.0418,-0.0499,-0.0499,-0.0365,-0.0365,-0.0329,-0.0325,-0.0323,-0.032,-0.0318,0,-0.0358,-0.0367,-0.0392,-0.04,-0.041,-0.0425,-0.0432,-0.0445,-0.0445,-0.0437,-0.043,-0.0407,-0.0399,-0.0345,-0.0363,-0.0353,-0.0352,-0.035,-0.037,-0.0344,-0.0342,-0.0346,-0.0349,-0.0314,-0.0313,-0.0313,-0.0312,0,-0.036,-0.0375,-0.039,-0.0402,-0.0413,-0.0416,-0.0421,-0.0415,-0.0416,-0.0433,-0.0382,-0.0351,-0.0307,-0.0291,-0.027,-0.0276,-0.0356,-0.0322,-0.0328,-0.0347,-0.0326,-0.0328,-0.0334,-0.0302,-0.0304,-0.0305,-0.0305,0,-0.0366,-0.0378,-0.0397,-0.0403,-0.041,-0.0391,-0.0397,-0.0377,-0.0372,-0.036,-0.0339,-0.0307,-0.0302,-0.0247,-0.024,-0.0216,-0.0215,-0.0227,-0.0238,-0.0249,-0.0224,-0.0186,-0.0103,0,0,0,0,0,-0.0372,-0.0381,-0.039,-0.0384,-0.0384,-0.0377,-0.0381,-0.0382,-0.038,-0.0334,-0.0332,-0.0287,-0.0226,-0.0212,-0.0167,-0.0194,-0.022,-0.0141,-0.0242,-0.0249,-0.026,-0.0236,0,0,0,0,0,0,-0.0376,-0.0394,-0.039,-0.0361,-0.0342,-0.0329,-0.0323,-0.032,-0.0293,-0.0294,-0.0264,-0.0262,-0.0213,-0.0242,-0.0159,-0.0153,-0.0208,-0.0126,-0.0124,-0.0243,-0.0253,-0.0262,-0.0241,0,0,0,0,0]},{"header":{"parameterUnit":"m.s-1","parameterCategory":2,"la1":30.2991,"la2":30.254,"lo1":-89.0895,"lo2":-89.0444,"dy":0.0017,"dx":0.0017,"nx":28,"ny":28,"refTime":"2023-10-22T09:00:00:Z","depth":"4","parameterNumber":3,"parameterNumberName":"V-component_of_CURRENTS"},"data":[0,0,0,0,0,0,0,0,0,0,0,0,0,0,0,0,0,0,0,0,0,0,0,0,0,0,0,0,0,0,0,0,0,0,0,0,0,0,0,0,0,0,0,0,0,0,0,0,0,0,0,0,0,0,0,0,0,0,-0.0224,-0.0224,0,-0.023,-0.023,-0.023,-0.0234,-0.0234,-0.0234,-0.0234,-0.0229,-0.0229,-0.0229,0,0,0,0,0,0,0,0,0,0,0,0,0,-0.0233,-0.0233,-0.0224,-0.0224,-0.0224,-0.023,-0.023,-0.023,-0.0234,-0.0234,-0.0234,-0.0234,-0.0229,-0.0229,-0.0229,0,0,0,0,0,0,0,0,0,0,0,0,0,-0.0234,-0.0233,-0.0224,-0.0227,-0.0227,-0.023,-0.023,-0.023,-0.0234,-0.0234,-0.0234,-0.0234,-0.0229,-0.0229,-0.0229,-0.0229,0,0,-0.0228,-0.0228,0,0,0,0,0,0,0,0,-0.0234,-0.0234,-0.0226,-0.0227,-0.0227,-0.0231,-0.0231,-0.0229,-0.0234,-0.0232,-0.0234,-0.0234,-0.0228,-0.0228,-0.023,-0.0228,-0.0228,-0.0228,-0.0228,-0.0228,-0.0228,0,0,0,0,0,0,0,-0.0234,-0.0233,-0.0227,-0.0226,-0.0227,-0.0233,-0.0233,-0.0231,-0.0231,-0.0232,-0.0233,-0.0232,-0.0228,-0.0231,-0.023,-0.0228,-0.0228,-0.0228,-0.0228,-0.0228,-0.0252,-0.0252,0,0,0,0,0,0,-0.0231,-0.0233,-0.0227,-0.0227,-0.0229,-0.0232,-0.0232,-0.023,-0.0231,-0.0231,-0.0232,-0.0232,-0.0231,-0.023,-0.023,-0.0244,-0.0228,-0.0228,-0.0228,-0.0251,-0.0252,-0.0253,0,0,0,0,0,0,-0.0231,-0.023,-0.0227,-0.023,-0.023,-0.0232,-0.023,-0.023,-0.0236,-0.0231,-0.0231,-0.0237,-0.0231,-0.023,-0.0237,-0.0243,-0.0228,-0.0228,-0.025,-0.0251,-0.0252,-0.0262,0,0,0,0,0,0,-0.0231,-0.023,-0.0232,-0.023,-0.023,-0.0233,-0.023,-0.023,-0.0235,-0.0235,-0.0235,-0.0234,-0.0231,-0.0237,-0.0237,-0.0243,-0.0228,-0.0249,-0.0251,-0.0252,-0.0261,-0.0264,-0.0266,0,0,0,0,0,-0.0231,-0.0235,-0.0232,-0.0231,-0.023,-0.0233,-0.0234,-0.0236,-0.0235,-0.024,-0.0242,-0.0234,-0.0246,-0.0238,-0.0237,-0.0243,-0.0248,-0.025,-0.0252,-0.026,-0.0263,-0.0266,0,0,0,0,0,0,-0.0243,-0.0235,-0.0232,-0.0234,-0.0235,-0.0234,-0.024,-0.0239,-0.0245,-0.0246,-0.0241,-0.0241,-0.0252,-0.0248,-0.0239,-0.0256,-0.0247,-0.0248,-0.0253,-0.0256,-0.0259,-0.0253,-0.0227,0,0,0,0,0,-0.0245,-0.0244,-0.0239,-0.0242,-0.0242,-0.0241,-0.0243,-0.0244,-0.0246,-0.0249,-0.0249,-0.0252,-0.0258,-0.0257,-0.0263,-0.0266,-0.0255,-0.0272,-0.0274,-0.0276,-0.0273,-0.0254,-0.0254,-0.0258,-0.0258,-0.0258,0,0,-0.0252,-0.0247,-0.0248,-0.0244,-0.0245,-0.0253,-0.0243,-0.0248,-0.0257,-0.0247,-0.0261,-0.0261,-0.0263,-0.0272,-0.0276,-0.0268,-0.0273,-0.0278,-0.028,-0.0275,-0.0256,-0.0255,-0.0255,-0.0259,-0.0259,-0.0259,0,0,-0.0268,-0.0259,-0.0266,-0.0267,-0.0266,-0.0265,-0.0266,-0.0267,-0.027,-0.028,-0.0279,-0.0279,-0.0289,-0.0287,-0.0288,-0.0306,-0.029,-0.0313,-0.0313,-0.0296,-0.0295,-0.0294,-0.0289,-0.0287,-0.0309,-0.0309,-0.0309,0,-0.028,-0.0284,-0.0271,-0.0279,-0.0284,-0.0271,-0.0286,-0.0285,-0.029,-0.0291,-0.0288,-0.0297,-0.0294,-0.03,-0.0307,-0.0309,-0.0301,-0.03,-0.0297,-0.0295,-0.0294,-0.0289,-0.0288,-0.031,-0.031,-0.031,-0.0309,0,-0.0301,-0.0307,-0.0312,-0.0317,-0.0319,-0.0329,-0.0323,-0.0328,-0.0325,-0.0321,-0.0327,-0.032,-0.0322,-0.0323,-0.0318,-0.0313,-0.0312,-0.0304,-0.0285,-0.0294,-0.0289,-0.0287,-0.0311,-0.031,-0.031,-0.031,0,0,-0.033,-0.0328,-0.0333,-0.0339,-0.0341,-0.0344,-0.0356,-0.036,-0.0364,-0.0358,-0.0365,-0.036,-0.0345,-0.0345,-0.0337,-0.0315,-0.03,-0.0304,-0.0303,-0.0292,-0.0269,-0.0256,-0.0252,-0.0287,-0.0287,-0.0286,-0.0273,0,-0.0357,-0.0375,-0.0371,-0.0393,-0.04,-0.0393,-0.0404,-0.0402,-0.0396,-0.0397,-0.0376,-0.0381,-0.0357,-0.0359,-0.0332,-0.0315,-0.0293,-0.0305,-0.0269,-0.0268,-0.0248,-0.0248,-0.0285,-0.0271,-0.0271,-0.027,-0.027,0,-0.0388,-0.0391,-0.0417,-0.0422,-0.0426,-0.044,-0.0448,-0.0455,-0.0445,-0.0441,-0.0427,-0.0412,-0.0392,-0.0368,-0.0322,-0.0331,-0.0299,-0.0275,-0.0274,-0.0253,-0.025,-0.0259,-0.0266,-0.0266,-0.0266,-0.0267,-0.0267,0,-0.0413,-0.0428,-0.0447,-0.0451,-0.0454,-0.0469,-0.0475,-0.0471,-0.0466,-0.047,-0.0463,-0.044,-0.0429,-0.0384,-0.0336,-0.0328,-0.0283,-0.0268,-0.0225,-0.0225,-0.0235,-0.0237,-0.0225,-0.0225,-0.0225,-0.0225,-0.0225,0,-0.044,-0.0459,-0.046,-0.047,-0.0485,-0.049,-0.0502,-0.0506,-0.0501,-0.0491,-0.0483,-0.0468,-0.0428,-0.0396,-0.0348,-0.0285,-0.0293,-0.0223,-0.0215,-0.0244,-0.0246,-0.0234,-0.0236,-0.0225,-0.0225,-0.0225,-0.0225,0,-0.0461,-0.0469,-0.0483,-0.0492,-0.0497,-0.0507,-0.0508,-0.051,-0.0514,-0.0503,-0.0505,-0.0487,-0.0447,-0.0405,-0.0345,-0.0302,-0.0248,-0.0223,-0.0272,-0.0268,-0.0198,-0.0201,-0.0168,-0.0167,-0.0167,-0.0166,-0.0166,0,-0.047,-0.0481,-0.049,-0.0493,-0.05,-0.051,-0.0513,-0.0517,-0.0511,-0.0503,-0.0496,-0.0471,-0.0448,-0.0366,-0.0323,-0.0249,-0.0227,-0.0213,-0.0182,-0.0194,-0.019,-0.0193,-0.0196,-0.0165,-0.0165,-0.0165,-0.0164,0,-0.0474,-0.0483,-0.0486,-0.0492,-0.0501,-0.0503,-0.051,-0.0502,-0.0502,-0.0499,-0.0475,-0.0439,-0.0397,-0.0346,-0.0303,-0.0242,-0.0232,-0.0206,-0.0206,-0.0177,-0.019,-0.0187,-0.0191,-0.0162,-0.0163,-0.0163,-0.0163,0,-0.0469,-0.0467,-0.0474,-0.048,-0.0494,-0.0503,-0.0501,-0.0492,-0.0485,-0.047,-0.046,-0.0426,-0.041,-0.0341,-0.0294,-0.0246,-0.0213,-0.0192,-0.0192,-0.0194,-0.0201,-0.0221,-0.0193,0,0,0,0,0,-0.0454,-0.0453,-0.0459,-0.0466,-0.0487,-0.0501,-0.0502,-0.0498,-0.049,-0.0464,-0.0459,-0.0416,-0.0346,-0.0327,-0.027,-0.0274,-0.021,-0.0206,-0.0187,-0.0151,-0.0153,-0.0155,0,0,0,0,0,0,-0.0438,-0.0445,-0.0451,-0.0465,-0.0477,-0.0497,-0.0504,-0.0498,-0.0478,-0.0464,-0.0428,-0.0401,-0.0338,-0.038,-0.0272,-0.0258,-0.0237,-0.0174,-0.0172,-0.015,-0.0152,-0.0154,-0.0156,0,0,0,0,0]}]]